Plymouth Peak Pro Challenge - 50 Mile Trainer

Station: Trainer 50 Miles - T Race

Distance: 50 Miles    

Release: 10-Oct-2018 08:30

Weather Release:    Arrival:

Wind at Release:     Wind at Arrival:

Temp at Release: °    Temp at Arrival: °

Lofts: 99

Birds: 263

Clocked: 239

50 Mile Trainer - One Group
Drops Pos Breeder Pigeon Name Color Sex Ent Arrival Speed To Win Eligible AOCPed
1 Kolvenbag & Son - PA 1206-IF18-KOLV BB H 1 09:27:32.10 1529.504 00:00:00 Yes
2 Bluemountain Olr - PA 0868-IF18-FSJ BB H 1 09:27:32.70 1529.238 00:00:01 Yes
3 Rocky Mountain Racing - UT 1800-AU18-KFLY BC H 1 09:27:33.30 1528.972 00:00:01 Yes
3 Rory Smith - UT 8426-AU18-CDR BBWF H 1 09:27:33.30 1528.972 00:00:01 Yes
5 M2 Loft - UT 0165-AU18-UVI BB H 1 09:27:35.90 1527.822 00:00:04 Yes
6 J & M Partridge Loft - CA 1107-AU18-PASO LTBB C 1 09:27:37.00 1527.336 00:00:05 Yes
7 T B Brothers Loft - MS 2881-AU18-VITA BBSM H 1 09:27:37.70 1527.027 00:00:06 Yes
8 Genesis Syndicate Loft - AZ 0257-AU18-GENE BB C 1 09:27:38.30 1526.762 00:00:06 Yes
8 Heritage Loft - UT 17657-AU18-ARPU BB H 1 09:27:38.30 1526.762 00:00:06 Yes
10 Fleet Washington - DC 1804-AU18-FLEE BBSM H 1 09:27:38.80 1526.541 00:00:07 Yes
11 A P C Loft - TX 18134-AU18-APC BBSM H 1 09:27:40.50 1525.791 00:00:08 Yes
12 Smith R.P.L. - UT 3581-AU18-SRPL BB C 1 09:27:41.10 1525.527 00:00:09 Yes
13 Bieche-Stevenson - CA 8075-AU18-BIEC BC C 1 09:27:41.90 1525.174 00:00:10 Yes
14 Brook Loft - NC 8626-IF18-CCF BBPN C 1 09:27:42.50 1524.910 00:00:10 Yes
15 Genesis Syndicate Loft - AZ 0263-AU18-GENE BB C 2 09:27:42.90 1524.734 00:00:11 Yes
16 P N W Challenge - ID 0103-AU18-PNWC Pair#20 BCWF H 1 09:27:43.40 1524.513 00:00:11 Yes
17 Red Ass Ranch - TX 0334-AU18-RAR BB H 1 09:27:43.80 1524.337 00:00:12 Yes
18 Skylinerpl.Com - UT 0461-AU18-UVI "Checker Replacement" BC C 1 09:27:44.20 1524.161 00:00:12 Yes
19 Highland Loft - NY 18132-AU18-DZ BB H 1 09:27:44.60 1523.985 00:00:13 Yes
20 Baldwin & Tilson - NC 8105-AU18-TENT 4096 BBTC H 1 09:27:45.20 1523.722 00:00:13 Yes
21 Bryan Maier - PA 0321-IF18-MAIE BB H 1 09:27:45.50 1523.590 00:00:13 Yes
22 Nanez Family Lofts - WI 8068-AU18-NFL BB H 1 09:27:46.20 1523.282 00:00:14 Yes
23 Red Ass Ranch - TX 17698-AU18-ADA BB H 2 09:27:46.70 1523.062 00:00:15 Yes
24 G & L Loft - OR 3117-AU18-WPC BB H 1 09:27:47.30 1522.799 00:00:15 Yes
25 Sierra Ranch - CA 0877-AU18-SIER BB C 1 09:27:47.70 1522.623 00:00:16 Yes
25 Fleet Washington - DC 1805-AU18-FLEE BCSM C 2 09:27:47.70 1522.623 00:00:16 Yes
27 Mile High - CO 2316-AU18-AA Norda DUBR H 1 09:27:48.20 1522.404 00:00:16 Yes
28 Kolvenbag & Son - PA 1227-IF18-KOLV BC H 2 09:27:48.60 1522.228 00:00:17 Yes
29 Kastle Loft - KY 1833-AU18-KAST Kastle Justice BBTC H 1 09:27:49.60 1521.789 00:00:18 Yes
30 Lindsay - UT 18738-AU18-RMR BBSM H 1 09:27:49.90 1521.658 00:00:18 Yes
31 Da-Dong - WI 6086-AU18-RRP 372-2901 BB H 1 09:27:51.10 1521.132 00:00:19 Yes
32 D G F Loft - UT 0389-AU18-UVI 5086x11394 BBPN H 1 09:27:51.40 1521.000 00:00:19 Yes
33 Nemelka Racing Pigeon Loft - UT 8041-AU18-NRPL Suprstitous X Ms. Guided BB H 1 09:27:52.30 1520.606 00:00:20 Yes
34 Broster Family Loft - CA 2411-AU18-ARC Sky Jacker LTBC H 1 09:27:52.70 1520.431 00:00:21 Yes
35 Rocky Mountain Racing - UT 18435-AU18-RMR BC H 2 09:27:53.10 1520.256 00:00:21 Yes
36 A P C Loft - TX 18151-AU18-APC BB H 2 09:27:54.10 1519.818 00:00:22 Yes
37 Bieche-Stevenson - CA 8149-AU18-BIEC BC C 2 09:27:54.60 1519.599 00:00:23 Yes
38 Slick Hills Loft - UT 38618-AU18-ARPU BBSP H 1 09:27:55.30 1519.293 00:00:23 Yes
39 Jomo - CA 4422-AU18-ARPU BC H 1 09:27:56.30 1518.856 00:00:24 Yes
40 Eastern Pearl Loft - VA 0363-AU18-EPL 🈚️量 363 BC C 1 09:27:56.90 1518.594 00:00:25 Yes
41 Bill Kluge - TX 18009-AU18-COLD BC H 1 09:27:57.20 1518.463 00:00:25 Yes
41 Vincent Rooney - VA 8070-IF18-SEA BCSM H 1 09:27:57.20 1518.463 00:00:25 Yes
43 Poorhouse Road Loft - VA 56012-AU18-ARPU BB H 1 09:27:57.50 1518.332 00:00:25 Yes
44 G & L Loft - OR 0703-AU18-FHI RC H 2 09:27:58.20 1518.027 00:00:26 Yes
45 Don Hart - FL 4889-AU18-GHC BC H 1 09:27:58.70 1517.808 00:00:27 Yes
46 Liu Loft - NC 0864-AU18-KVLI BB C 1 09:27:59.00 1517.677 00:00:27 Yes
47 Sierra Ranch - CA 0814-AU18-SIER LTBC C 2 09:27:59.30 1517.547 00:00:27 Yes
48 Rocky Mountain Racing - UT 18704-AU18-RMR BB H 3 09:27:59.80 1517.329 00:00:28 Yes
49 Racing Pigeon Mall - WA 0811-AU18-RPM BB C 1 09:28:00.20 1517.154 00:00:28 Yes
50 Nykamp Loft - ID 8707-AU18-NYKA Loco Cool X Maggie BB H 1 09:28:00.50 1517.023 00:00:28 Yes
51 B & M - CA 5360-AU18-COM BB H 1 09:28:01.20 1516.718 00:00:29 Yes
51 Skylinerpl.Com - UT 1022-AU18-UVI "The Check" BC H 2 09:28:01.20 1516.718 00:00:29 Yes
53 Baldwin & Tilson - NC 8093-AU18-TENT DTB BC H 2 09:28:01.50 1516.588 00:00:29 Yes
54 D G F Loft - UT 0355-AU18-UVI 1069x59166 BBSM C 2 09:28:01.80 1516.457 00:00:30 Yes
55 De La O-Siino - CA 8049-AU18-COOK BB C 1 09:28:01.90 1516.413 00:00:30 Yes
56 J & M Partridge Loft - CA 1221-AU18-PASO BB H 2 09:28:02.40 1516.196 00:00:30 Yes
57 Genesis Syndicate Loft - AZ 0262-AU18-GENE BB H 3 09:28:02.80 1516.022 00:00:31 Yes
58 Gold Country Challenge - CA 0003-AU18-HANG BBTC C 1 09:28:03.30 1515.804 00:00:31 Yes
59 Great Wall - VA 0068-AU18-JIMM BB C 1 09:28:03.70 1515.630 00:00:32 Yes
60 Great Wall - VA 12036-AU18-TONY BBSM H 2 09:28:04.70 1515.195 00:00:33 Yes
61 Smith R.P.L. - UT 3596-AU18-SRPL BB C 2 09:28:06.00 1514.630 00:00:34 Yes
62 Lindsay - UT 18735-AU18-RMR GRIZ H 2 09:28:06.60 1514.369 00:00:35 Yes
63 B W Loft - ID 18314-AU18-RMR Christmas Chrome BCPD H 1 09:28:07.10 1514.152 00:00:35 Yes
64 Drama Queen Loft - TX 1068-AU18-GCI BB H 1 09:28:08.00 1513.761 00:00:36 Yes
65 Genesis Syndicate Loft - AZ 0212-AU18-GENE BB H 4 09:28:09.80 1512.981 00:00:38 Yes
66 Racing Pigeon Mall - WA 0814-AU18-RPM BB C 2 09:28:10.40 1512.721 00:00:38 Yes
66 A P C Loft - TX 18144-AU18-APC BBPN H 3 09:28:10.40 1512.721 00:00:38 Yes
68 Alan Porter - WI 0419-AU18-RRR BBWF H 1 09:28:10.90 1512.504 00:00:39 Yes
69 7-11 Syndicate - CA 0536-AU18-SD BCWF H 1 09:28:11.20 1512.374 00:00:39 Yes
70 Nanez Family Lofts - WI 8135-AU18-NFL BB H 2 09:28:11.90 1512.071 00:00:40 Yes
71 Da-Dong - WI 6053-AU18-RRP 45641 BB C 2 09:28:13.40 1511.422 00:00:41 Yes
72 Brook Loft - NC 8666-IF18-CCF BBWF H 2 09:28:14.50 1510.946 00:00:42 Yes
73 Slick Hills Loft - UT 38637-AU18-ARPU WGRZ C 2 09:28:14.60 1510.903 00:00:42 Yes
74 B & B Loft 4 - TX 0215-AU18-NSL Foolish Stormy BB H 1 09:28:15.10 1510.686 00:00:43 Yes
75 Lucky 17 - OK 0106-AU18-ARPU All in BB H 1 09:28:15.70 1510.427 00:00:44 Yes
76 Racing Pigeon Mall - WA 0815-AU18-RPM DC C 3 09:28:16.60 1510.038 00:00:45 Yes
77 S & M Loft - Eden Loft - ID 7078-AU18-AA BC C 1 09:28:17.60 1509.607 00:00:45 Yes
78 Evolution Racing - UT 5602-AU18-OGN BBPN H 1 09:28:17.90 1509.477 00:00:46 Yes
79 Fleet Washington - DC 1821-AU18-FLEE BBSM H 3 09:28:20.30 1508.442 00:00:48 Yes
80 Catherine And Geoff Cooper - BA 0548-AU18-RIXE BB C 1 09:28:21.90 1507.753 00:00:50 Yes
81 Slick Hills Loft - UT 38642-AU18-ARPU BBSP H 3 09:28:22.40 1507.538 00:00:50 Yes
82 Kastle Loft - KY 1801-AU18-KAST Dowhatchawannado BB H 2 09:28:23.40 1507.107 00:00:51 Yes
83 Eduardo Torres - TX 49821-AU18-ARPU PEN C 1 09:28:25.20 1506.333 00:00:53 Yes
84 Triangle F Loft - UT 0226-AU18-UVI 7349 X 655 BB H 1 09:28:26.80 1505.646 00:00:55 Yes
85 J & M Partridge Loft - CA 1234-AU18-PASO BB H 3 09:28:27.40 1505.389 00:00:55 Yes
86 Broster Family Loft - CA 2514-AU18-ARC Hees46 BB H 2 09:28:28.30 1505.002 00:00:56 Yes
87 Eduardo Torres - TX 49930-AU18-ARPU BC H 2 09:28:28.70 1504.831 00:00:57 Yes
88 S & M Loft - Eden Loft - ID 7010-AU18-AA BC H 2 09:28:29.80 1504.359 00:00:58 Yes
89 Duvall/Whiteley - UT 1482-AU18-WFA DC H 1 09:28:30.90 1503.888 00:00:59 Yes
90 Aimhigh Loft - CA 0130-AU18-FMT I Will Be There 💥💥 LTBC H 1 09:28:34.30 1502.433 00:01:02 Yes
91 Tex-Mex Loft - TX 0115-AU18-TEX Clarice LTBC H 1 09:28:35.10 1502.091 00:01:03 Yes
92 Marengo Creek Farms - AL 2960-AU18-MCF BB H 1 09:28:35.60 1501.877 00:01:04 Yes
93 Ken Christopher - UT 8448-AU18-GS RC C 1 09:28:36.20 1501.621 00:01:04 Yes
94 R & S Loft Of Tx - TX 0909-AU18-RS BBWF H 1 09:28:36.80 1501.365 00:01:05 Yes
95 Duvall/Whiteley - UT 1479-AU18-WFA BC H 2 09:28:37.80 1500.938 00:01:06 Yes
96 John R Helms - AL 0832-AU18-HELM BB H 1 09:28:38.20 1500.767 00:01:06 Yes
97 Don Hart - FL 4864-AU18-GHC BBTC H 2 09:28:39.40 1500.256 00:01:07 Yes
98 Sierra Ranch - CA 0809-AU18-SIER BBWF H 3 09:28:40.50 1499.787 00:01:08 Yes
99 Shi Loft - PA 7706-IF18-ERIE BC H 1 09:28:41.10 1499.531 00:01:09 Yes
100 D G F Loft - UT 0323-AU18-UVI 645x217 LTBC H 3 09:28:41.90 1499.191 00:01:10 Yes

There are 244 bird records

Note: These Race Results are unofficial and subject to change until verified by the Race Committee and declared final.